Regional Weather Roundup
Issued by NWS

Home | Current Version | Previous Version | Text Only | Print | Product List | Glossary On
Versions: 1 2 3 4 5 6 7 8 9 10 11 12 13 14 15 16 17 18 19 20 21 22 23 24 25 26 27 28 29 30 31 32 33 34 35 36 37 38 39 40 41 42 43 44 45 46 47 48 49 50
000
ASUS43 KDTX 301710
RWRMI
MICHIGAN HOURLY REGIONAL WEATHER ROUNDUP
NATIONAL WEATHER SERVICE DETROIT/PONTIAC MI
100 PM EDT SAT JUL 30 2016

NOTE: "FAIR" INDICATES FEW OR NO CLOUDS BELOW 12,000 FEET WITH NO
SIGNIFICANT WEATHER AND/OR OBSTRUCTION TO VISIBILITY.

MIZ047>049-052>055-059>063-066>070-074>076-081>083-301800-
SOUTHEAST LOWER MICHIGAN

CITY           SKY/WX    TMP DP  RH WIND       PRES   REMARKS
ADRIAN         LGT RAIN  73  67  81 NE10      29.98F
ALMA           CLOUDY    72  66  81 NE10      30.03F
ANN ARBOR      CLOUDY    69  66  90 N10       29.99S
BAD AXE        PTSUNNY   72  64  75 NE7       30.05S
CARO           PTSUNNY   70  64  81 E6        30.03S
DETROIT CITY   CLOUDY    73  68  84 N6        29.99F
DETROIT        CLOUDY    72  65  78 N14       29.99F
FLINT          LGT RAIN  71  66  84 NE9       30.02S
GROSSE ILE     PTSUNNY   74  67  79 NE13      29.97S
HILLSDALE      CLOUDY    71  66  83 E9        29.99F
HOWELL         LGT RAIN  67  67  97 NE7       30.00F

CITY           SKY/WX    TMP DP  RH WIND       PRES   REMARKS
JACKSON        CLOUDY    69  68  96 E5        30.00S
LAMBERTVILLE   CLOUDY    78  70  76 N8        29.96F
LANSING        CLOUDY    69  63  81 NE10      30.02S
LAPEER         DRIZZLE   67  62  86 NE5       30.03S
MASON          CLOUDY    67  65  91 NE6       30.01S
MONROE         CLOUDY    76  70  81 NE8       29.96S
MT. CLEMENS    CLOUDY    74  65  74 N8        29.98S
PONTIAC        LGT RAIN  66  64  93 E8        30.00F FOG
PORT HOPE        N/A     70  61  73 NE12      30.05S
PORT HURON     CLOUDY    75  64  69 N7        30.01R
TRI CITIES     CLOUDY    71  65  81 NE10      30.04F
MIDLAND        CLOUDY    70  63  79 NE6       30.04S
TROY           LGT RAIN  71  64  80 NE5       30.02S
SAGINAW HB     PTSUNNY   72  64  78 NE12      30.02F
$$
MIZ043>046-050>051-056>058-064>065-071>073-077>080-301800-
SOUTHWEST LOWER MICHIGAN

CITY           SKY/WX    TMP DP  RH WIND       PRES   REMARKS
BATTLE CREEK   LGT RAIN  64  64 100 E6        30.00F
BENTON HARBOR  MOSUNNY   76  65  68 E10       29.98F
BIG RAPIDS     CLOUDY    71  64  78 E10       30.04F
COLDWATER      CLOUDY    71  67  87 NE5       29.99S
FREMONT        CLOUDY    73  65  76 E3        30.02F
HOLLAND        CLOUDY    70  64  81 E7        30.02S
GRAND RAPIDS   LGT RAIN  69  64  84 NE8       30.01F
IONIA          LGT RAIN  67  63  87 NE10      30.01F
KALAMAZOO      CLOUDY    69  65  86 CALM      30.00S
LUDINGTON      SUNNY     76  60  57 NE8       30.02F
MARSHALL       RAIN      68  67  98 CALM      29.99S
MOUNT PLEASANT CLOUDY    72  64  75 NE12      30.04F
MUSKEGON       CLOUDY    74  63  68 NE12      30.01F
SOUTH HAVEN    CLOUDY    71  66  84 E7        29.99F
$$
MIZ016>042-301800-
NORTHERN LOWER MICHIGAN

CITY           SKY/WX    TMP DP  RH WIND       PRES   REMARKS
ALPENA         MOSUNNY   76  50  40 E14G22    30.10F
BEAVER ISLAND  SUNNY     77  53  43 E10       30.10S
BELLAIRE       SUNNY     78  48  33 NE9G18    30.06F
CADILLAC       PTSUNNY   72  57  59 E13       30.06S
CHARLEVOIX     MOSUNNY   76  52  42 NE14      30.10F
FRANKFORT      SUNNY     77  53  43 NE9G18    30.05S
GAYLORD        MOSUNNY   75  48  38 E9G17     30.09F
GRAYLING       SUNNY     80  49  34 E9G21     30.08S
HARBOR SPRINGS SUNNY     77  53  43 NE12G20   30.08F
HOUGHTON LAKE  CLOUDY    75  57  53 NE12      30.07F
MANISTEE       SUNNY     77  57  50 N7        30.03F
OSCODA         PTSUNNY   73  59  62 NE15      30.07F
PELLSTON       PTSUNNY   76  51  41 E12G18    30.09F
ROGERS CITY    SUNNY     72  56  57 NE10G16   30.12S
TRAVERSE CITY  MOSUNNY   81  50  33 NE13      30.03F
$$
MIZ007>008-015-301800-
EASTERN UPPER MICHIGAN

CITY           SKY/WX    TMP DP  RH WIND       PRES   REMARKS
KINROSS        MOSUNNY   77  50  38 E13       30.10F
MACKINAC ISLAN SUNNY     72  58  61 E13       30.10F
NEWBERRY       PTSUNNY   75  50  41 NE6       30.10S
S. S. MARIE    MOSUNNY   77  54  44 SE6       30.09F
MUNISING         N/A     74  64  71 NE12      30.08F
$$
MIZ004>006-011>014-085-301800-
CENTRAL UPPER MICHIGAN

CITY           SKY/WX    TMP DP  RH WIND       PRES   REMARKS
MANISTIQUE     PTSUNNY   76  59  54 S7        30.09S
ESCANABA       SUNNY     75  55  50 SE8       30.08F
MENOMINEE      SUNNY    N/A N/A N/A SE8       30.09S
SAWYER-GWINN   MOSUNNY   73  48  40 SE5       30.11F
$$
MIZ001>003-009>011-084-301800-
WESTERN UPPER MICHIGAN

CITY           SKY/WX    TMP DP  RH WIND       PRES   REMARKS
IRON MOUNTAIN  PTSUNNY   77  52  41 SE9       30.09S
HOUGHTON       CLOUDY    75  58  55 E7        30.09S
COPPER HARBOR    N/A     74  54  49 SW6       30.08F
IRONWOOD       MOSUNNY   75  57  53 SW5       30.05F
$$

ABBREVIATIONS USED IN REMARKS
   TC - TEMPERATURE IN CELSIUS
  WCI - WIND CHILL INDEX
   HX - HEAT INDEX
  VSB - VISIBILITY





USA.gov is the U.S. government's official web portal to all federal, state and local government web resources and services.